Date,TemperatureHighF,TemperatureAvgF,TemperatureLowF,DewpointHighF,DewpointAvgF,DewpointLowF,HumidityHigh,HumidityAvg,HumidityLow,PressureMaxIn,PressureMinIn,WindSpeedMaxMPH,WindSpeedAvgMPH,GustSpeedMaxMPH,PrecipitationSumIn
2013-1-1,37,29,16,16,13,10,79,53,39,30.47,30.31,11,4,17,0.00
2013-1-2,38,23,11,12,9,5,82,57,26,30.55,30.39,7,2,12,0.00
2013-1-3,40,25,15,14,10,6,72,52,32,30.63,30.49,10,3,18,0.00
2013-1-4,38,23,9,9,4,1,69,46,26,30.64,30.46,6,2,11,0.00
2013-1-5,46,28,14,8,5,2,64,39,20,30.66,30.52,5,1,9,0.00
2013-1-6,44,28,14,10,7,4,66,42,23,30.65,30.36,9,1,14,0.00
2013-1-7,52,37,28,19,13,7,53,39,25,30.36,30.07,8,2,13,0.00
2013-1-8,49,34,20,19,14,10,76,47,20,30.39,30.07,13,5,21,0.00
2013-1-9,53,36,22,17,14,11,67,43,22,30.61,30.30,8,3,12,0.00
2013-1-10,47,34,23,16,13,11,60,43,27,30.31,29.89,8,2,15,0.00
2013-1-11,38,31,17,14,-2,-10,43,25,17,30.07,29.88,21,10,31,0.00
2013-1-12,35,20,8,2,-4,-12,59,36,17,30.31,30.06,11,3,17,0.00
2013-1-13,31,14,5,4,-2,-5,64,50,28,30.43,30.27,5,2,10,0.00
2013-1-14,28,21,14,22,10,-3,84,64,41,30.39,30.21,10,2,15,0.02
2013-1-15,26,16,6,6,1,-3,72,52,34,30.72,30.38,11,4,19,0.00
2013-1-16,41,24,8,14,7,0,76,49,30,30.81,30.62,5,1,10,0.00
2013-1-17,51,30,13,18,12,7,77,51,25,30.81,30.61,5,2,10,0.00
2013-1-18,54,36,20,20,16,11,72,47,25,30.62,30.39,5,2,10,0.00
2013-1-19,54,37,21,20,17,14,75,48,22,30.53,30.39,7,2,10,0.00
2013-1-20,56,36,19,18,14,6,74,46,14,30.49,30.31,5,1,9,0.00
2013-1-21,56,37,20,18,13,8,65,40,20,30.48,30.32,7,2,12,0.00
2013-1-22,60,40,22,18,15,8,68,39,16,30.47,30.32,7,2,11,0.00
2013-1-23,60,40,21,15,11,8,65,34,15,30.51,30.37,6,2,10,0.00
2013-1-24,64,44,24,34,16,7,59,36,16,30.45,30.25,9,2,14,0.00
2013-1-25,58,46,38,39,33,30,72,62,48,30.33,30.17,4,1,9,0.00
2013-1-26,56,46,41,49,39,34,89,76,60,30.17,29.88,13,2,18,0.16
2013-1-27,58,45,38,41,38,35,91,79,48,30.01,29.95,13,4,21,0.00
2013-1-28,42,40,38,27,24,19,58,52,46,29.84,29.83,11,7,13,0.01
2013-1-29,38,32,28,22,14,3,71,48,26,30.09,29.77,22,10,40,0.01
2013-1-30,43,32,20,16,14,7,69,48,29,30.42,30.09,15,6,24,0.00
2013-1-31,55,37,22,24,19,15,79,52,24,30.50,30.36,11,3,17,0.00
2013-2-1,58,36,24,23,19,15,75,53,18,30.41,30.27,10,3,14,0.00
2013-2-2,58,42,28,24,20,17,72,45,22,30.48,30.35,8,2,11,0.00
2013-2-3,54,41,28,30,22,18,70,47,25,30.40,30.07,10,2,17,0.00
2013-2-4,60,46,34,30,25,17,75,47,21,30.17,30.02,10,3,15,0.00
2013-2-5,62,45,33,24,19,14,61,39,16,30.16,30.01,7,2,11,0.00
2013-2-6,64,44,28,28,21,16,65,42,25,30.06,29.89,12,3,16,0.00
2013-2-7,60,45,33,27,20,9,66,41,16,30.19,30.03,6,2,10,0.00
2013-2-8,58,45,34,24,20,15,53,39,26,30.16,29.79,18,5,31,0.00
2013-2-9,50,38,28,24,14,4,59,39,21,29.92,29.64,25,10,38,0.00
2013-2-10,45,34,24,23,14,9,71,46,25,30.11,29.92,11,5,22,0.00
2013-2-11,47,33,20,23,17,3,83,57,17,30.18,30.03,13,4,18,0.00
2013-2-12,42,32,24,22,13,6,69,48,23,30.35,30.09,13,6,20,0.00
2013-2-13,49,34,18,17,12,7,62,42,25,30.38,30.20,12,4,20,0.00
2013-2-14,53,39,24,20,17,13,65,42,23,30.31,30.15,13,5,23,0.00
2013-2-15,52,39,24,22,14,2,77,41,13,30.48,30.31,17,5,28,0.00
2013-2-16,62,41,23,13,7,-3,51,28,8,30.56,30.24,7,2,12,0.00
2013-2-17,61,42,21,9,4,0,41,23,9,30.24,29.77,14,5,20,0.00
2013-2-18,54,43,34,18,-2,-21,50,19,4,30.13,29.85,14,6,20,0.00
2013-2-19,60,41,22,35,5,-12,66,26,10,30.17,29.80,20,7,30,0.00
2013-2-20,52,43,36,35,29,16,76,59,26,29.81,29.48,18,8,30,0.00
2013-2-21,36,31,29,28,26,23,91,82,69,29.84,29.56,11,3,16,0.00
2013-2-23,50,39,17,18,11,8,66,34,21,30.25,29.84,13,4,17,0.00
2013-2-24,42,35,29,23,14,4,78,44,25,30.00,29.72,18,10,28,0.00
2013-2-25,50,37,25,24,9,0,79,36,14,30.23,30.00,12,7,21,0.00
2013-2-26,49,34,21,15,5,-10,59,32,11,30.23,29.93,19,7,30,0.00
2013-2-27,49,34,21,10,5,-3,51,31,14,30.45,30.23,12,2,18,0.00
2013-2-28,39,38,38,5,5,4,25,24,24,30.43,30.42,2,1,4,0.00
2013-3-1,61,45,32,21,13,4,39,28,18,30.49,30.30,13,6,20,0.00
2013-3-2,68,50,32,24,20,16,58,34,17,30.47,30.19,6,2,9,0.00
2013-3-3,71,51,33,23,15,-2,52,28,6,30.20,29.84,16,4,25,0.00
2013-3-4,65,54,45,24,20,16,34,26,16,30.04,29.71,18,6,27,0.00
2013-3-5,62,47,32,22,17,2,64,34,9,30.33,30.04,8,3,13,0.00
2013-3-6,68,53,42,26,20,12,39,29,19,30.22,29.88,12,3,17,0.00
2013-3-7,73,54,34,22,16,10,43,25,12,30.06,29.83,9,2,16,0.00
2013-3-8,62,48,39,43,24,11,86,45,19,29.92,29.68,20,5,27,0.11
2013-3-9,49,40,32,35,25,15,81,57,28,30.06,29.76,14,6,22,0.00
2013-3-10,54,40,28,29,23,12,85,55,24,30.25,30.05,11,3,17,0.00
2013-3-11,65,47,28,20,17,6,62,35,11,30.29,30.04,11,4,16,0.00
2013-3-12,71,53,35,24,21,19,53,30,16,30.22,30.07,11,3,17,0.00
2013-3-13,73,54,34,27,22,16,59,32,14,30.35,30.16,8,3,12,0.00
2013-3-14,78,58,41,26,19,10,45,24,9,30.30,30.08,7,3,13,0.00
2013-3-15,80,60,42,22,14,9,36,18,7,30.13,29.83,7,2,10,0.00
2013-3-16,74,61,44,34,22,13,50,23,12,29.84,29.62,16,6,24,0.00
2013-3-17,72,55,40,38,20,-16,70,36,3,29.80,29.60,19,6,28,0.00
2013-3-18,68,53,37,10,7,1,30,16,8,29.96,29.80,14,4,20,0.00
2013-3-19,66,50,39,16,9,2,31,19,11,30.18,29.95,12,3,21,0.00
2013-3-20,64,50,33,27,18,13,45,30,18,30.27,29.85,10,4,15,0.00
2013-3-21,72,60,49,33,19,-7,45,24,5,29.85,29.52,22,8,30,0.00
2013-3-22,68,53,35,28,12,4,38,21,9,29.76,29.54,22,6,26,0.00
2013-3-23,52,41,31,27,3,-16,52,23,8,30.15,29.65,23,10,33,0.00
2013-3-24,56,43,23,0,-3,-8,25,15,9,30.28,30.00,17,6,26,0.00
2013-3-25,59,41,25,11,7,-1,48,26,14,30.32,30.13,11,4,18,0.00
2013-3-26,67,49,31,14,10,6,35,22,11,30.27,29.95,14,6,20,0.00
2013-3-27,74,58,42,17,12,5,31,17,8,30.06,29.87,15,4,20,0.00
2013-3-28,74,62,46,24,15,6,26,17,8,30.03,29.87,13,4,22,0.00
2013-3-29,76,61,45,23,19,14,33,21,11,30.08,29.91,11,3,18,0.00
2013-3-30,76,60,41,27,20,14,38,23,10,30.09,29.86,11,3,22,0.00
2013-3-31,76,62,50,34,28,24,46,28,16,29.99,29.80,8,2,12,0.00
2013-4-1,77,63,46,28,18,2,43,21,7,29.94,29.69,15,4,22,0.00
2013-4-2,70,57,47,23,16,-2,32,21,6,29.90,29.67,18,5,30,0.00
2013-4-3,68,53,39,31,26,19,66,39,16,30.09,29.90,10,4,15,0.00
2013-4-4,76,58,38,30,20,10,65,29,9,30.20,29.97,7,1,12,0.00
2013-4-5,78,63,46,20,14,7,32,16,7,30.01,29.65,15,5,21,0.00
2013-4-6,78,65,50,27,21,14,35,20,9,29.85,29.64,13,4,18,0.00
2013-4-7,78,65,51,28,20,14,35,19,10,29.75,29.56,13,5,21,0.00
2013-4-8,79,65,51,29,21,12,37,20,8,29.60,29.16,24,11,33,0.00
2013-4-9,55,46,42,36,34,29,79,66,38,29.80,29.26,16,6,28,0.04
2013-4-10,50,42,37,36,26,19,85,56,36,30.03,29.80,13,4,19,0.00
2013-4-11,67,49,31,30,22,14,55,37,22,30.06,29.83,14,5,21,0.00
2013-4-12,71,58,44,34,29,22,58,36,18,29.88,29.72,15,2,18,0.00
2013-4-13,64,51,40,28,23,14,48,35,16,29.82,29.55,13,1,17,0.00
2013-4-14,81,66,55,26,23,17,29,20,10,29.58,29.40,21,10,30,0.00
2013-4-15,83,65,47,26,20,10,37,20,7,29.60,29.39,20,8,31,0.00
2013-4-16,82,67,52,26,16,-1,27,16,4,29.65,29.42,23,10,34,0.00
2013-4-17,64,55,40,28,20,6,41,26,10,29.88,29.48,21,10,32,0.00
2013-4-18,50,41,31,18,7,-2,43,26,12,30.28,29.88,16,8,27,0.00
2013-4-19,66,47,28,8,5,0,40,20,7,30.41,30.02,12,3,15,0.00
2013-4-20,70,56,42,20,11,1,28,17,10,30.02,29.77,17,5,27,0.00
2013-4-21,76,59,38,25,17,3,48,23,6,30.08,29.87,11,4,18,0.00
2013-4-22,84,66,45,22,14,7,33,16,6,29.92,29.61,18,6,25,0.00
2013-4-23,69,59,46,31,16,-15,52,21,5,29.96,29.63,19,8,26,0.00
2013-4-24,72,50,30,22,17,-6,57,31,11,30.20,29.96,11,3,16,0.00
2013-4-25,77,61,49,30,23,11,38,25,9,30.06,29.70,19,6,28,0.00
2013-4-26,78,62,45,32,21,-4,54,27,5,30.07,29.90,12,4,26,0.00
2013-4-27,79,62,44,30,15,-12,45,22,3,30.14,29.91,9,3,15,0.00
2013-4-28,84,65,45,17,5,-7,24,11,3,29.99,29.71,10,3,18,0.00
2013-4-29,88,68,47,24,12,4,25,12,6,29.81,29.53,14,4,20,0.00
2013-4-30,88,71,52,25,15,5,27,14,5,29.67,29.48,16,5,25,0.00
2013-5-1,85,70,55,24,12,-8,26,12,5,29.96,29.56,17,6,23,0.00
2013-5-2,63,51,38,28,19,-8,54,31,7,30.38,29.94,11,4,18,0.00
2013-5-3,68,51,34,19,15,10,42,25,11,30.41,29.98,10,4,14,0.00
2013-5-4,77,61,43,16,12,7,26,16,7,30.00,29.75,12,4,20,0.00
2013-5-5,64,58,53,20,15,8,24,19,11,30.00,29.86,16,7,26,0.00
2013-5-6,74,66,59,39,30,21,44,27,17,29.88,29.79,19,8,26,0.00
2013-5-7,77,63,46,34,30,24,53,30,15,29.93,29.70,19,4,30,0.00
2013-5-8,73,62,48,36,27,16,55,30,12,29.90,29.75,17,4,23,0.00
2013-5-9,73,61,48,30,26,20,42,27,16,29.97,29.83,9,3,14,0.00
2013-5-10,71,60,49,45,37,29,67,44,28,30.17,29.96,13,3,18,0.04
2013-5-11,74,60,48,44,38,29,79,48,21,30.25,30.16,15,3,27,0.00
2013-5-12,80,63,45,37,33,28,60,35,16,30.26,30.00,7,2,12,0.00
2013-5-13,86,69,50,35,30,26,46,26,12,30.15,29.90,10,3,18,0.00
2013-5-14,88,70,53,44,28,21,43,22,10,29.97,29.68,15,3,21,0.00
2013-5-15,79,69,64,42,36,20,41,32,12,29.80,29.66,9,1,14,0.00
2013-5-16,89,74,54,31,20,4,31,16,5,29.81,29.59,15,4,22,0.00
2013-5-17,90,74,54,33,20,9,30,14,7,29.81,29.58,19,4,29,0.00
2013-5-18,81,71,57,29,19,10,24,14,8,29.78,29.56,18,7,25,0.00
2013-5-19,76,65,56,37,30,17,45,29,12,29.78,29.67,18,6,25,0.00
2013-5-20,73,60,50,35,32,25,52,37,18,29.83,29.76,11,4,17,0.00
2013-5-22,89,82,71,28,20,13,20,10,6,29.77,29.56,11,5,17,0.00
2013-5-23,93,76,56,29,18,1,27,12,5,29.77,29.55,17,5,29,0.00
2013-5-24,90,76,59,50,34,12,66,27,8,29.85,29.64,13,4,24,0.00
2013-5-25,94,76,54,36,21,4,31,15,4,29.87,29.60,16,4,27,0.00
2013-5-26,92,76,58,32,13,-11,27,11,2,29.83,29.60,13,4,21,0.00
2013-5-27,87,72,57,30,12,1,27,11,4,29.79,29.59,16,4,26,0.00
2013-5-28,84,70,52,27,15,-1,30,14,4,29.66,29.39,12,4,18,0.00
2013-5-29,84,73,61,38,22,-1,38,17,5,29.53,29.38,19,6,30,0.00
2013-5-30,90,74,56,30,21,14,26,15,7,29.70,29.53,15,6,27,0.00
2013-5-31,87,76,60,41,25,2,38,18,6,29.74,29.59,15,7,26,0.00
2013-6-1,89,73,54,31,10,-4,25,10,3,29.89,29.73,10,3,14,0.00
2013-6-2,88,75,63,45,36,29,37,25,18,29.89,29.60,16,4,25,0.00
2013-6-3,93,77,62,51,38,8,56,31,5,29.77,29.53,17,6,24,0.00
2013-6-4,96,80,59,31,20,1,25,12,3,29.76,29.55,18,5,27,0.00
2013-6-5,93,79,64,44,31,17,32,19,7,29.72,29.55,16,4,21,0.00
2013-6-6,93,74,57,46,39,24,55,32,10,29.82,29.63,16,4,23,0.00
2013-6-7,93,76,61,51,43,27,66,36,10,29.81,29.54,18,4,24,0.00
2013-6-8,97,79,60,47,36,21,56,27,7,29.69,29.48,13,4,22,0.00
2013-6-9,98,83,65,50,41,24,49,26,9,29.74,29.58,10,2,13,0.00
2013-6-10,104,86,70,50,39,26,45,23,7,29.74,29.53,23,4,35,0.00
2013-6-11,103,88,71,39,22,5,28,11,3,29.74,29.55,17,4,22,0.00
2013-6-12,105,84,63,32,22,13,22,11,4,29.80,29.64,12,2,20,0.00
2013-6-13,103,83,67,48,35,24,33,19,7,29.78,29.58,20,4,26,0.00
2013-6-14,96,81,69,54,47,32,52,32,11,29.72,29.55,14,3,20,0.00
2013-6-15,79,72,65,51,46,38,59,41,23,29.82,29.69,19,5,27,0.00
2013-6-16,97,80,67,47,41,32,41,26,11,29.85,29.69,26,5,37,0.00
2013-6-17,97,80,63,47,41,34,48,27,13,29.86,29.62,11,2,17,0.00
2013-6-18,93,80,66,53,48,39,57,35,16,29.84,29.57,13,4,22,0.00
2013-6-19,101,83,61,45,24,-17,41,17,2,29.70,29.46,16,5,24,0.00
2013-6-20,99,81,61,44,6,-100,39,12,1,29.73,29.51,16,3,24,0.00
2013-6-21,99,80,59,45,17,-20,33,11,1,29.79,29.55,14,4,18,0.00
2013-6-22,96,80,60,29,14,1,20,10,3,29.74,29.54,16,5,27,0.00
2013-6-23,96,80,58,30,15,-5,23,10,4,29.74,29.51,14,4,20,0.00
2013-6-24,97,78,65,31,15,-1,19,10,3,29.72,29.57,16,4,25,0.00
2013-6-25,98,82,62,32,20,7,22,11,5,29.80,29.62,11,3,18,0.00
2013-6-26,103,84,64,34,27,20,28,14,6,29.84,29.66,9,2,16,0.00
2013-6-27,108,89,67,42,29,15,27,13,4,29.83,29.64,12,2,17,0.00
2013-6-28,101,87,76,52,42,31,43,22,13,29.87,29.70,23,5,31,0.00
2013-6-29,100,82,69,50,45,35,48,30,12,29.87,29.67,20,4,28,0.00
2013-6-30,99,81,68,52,46,41,45,31,15,29.87,29.61,19,3,28,0.00
2013-7-1,91,75,62,56,51,43,76,47,20,29.97,29.79,17,3,22,0.01
2013-7-2,90,74,61,55,49,41,65,43,23,30.02,29.76,18,5,29,0.00
2013-7-3,89,72,61,58,54,45,86,57,25,29.95,29.66,13,3,19,0.07
2013-7-4,94,78,61,57,52,41,80,46,17,29.79,29.61,11,2,17,0.00
2013-7-5,98,76,66,62,55,49,85,50,20,29.73,29.51,14,3,23,0.20
2013-7-6,94,77,65,63,56,47,84,54,20,29.78,29.60,14,3,21,0.00
2013-7-7,96,80,66,61,56,47,79,48,20,29.80,29.63,10,3,15,0.02
2013-7-8,98,82,68,61,54,49,78,41,21,29.89,29.70,16,3,23,0.00
2013-7-9,98,79,67,62,58,50,81,53,22,29.93,29.75,15,2,24,0.00
2013-7-10,96,84,70,58,54,48,60,38,20,29.87,29.67,14,3,19,0.00
2013-7-11,89,79,69,61,56,50,69,48,27,29.88,29.67,11,4,16,0.00
2013-7-12,93,79,66,60,56,48,76,48,25,29.82,29.66,10,3,15,0.00
2013-7-13,96,81,68,60,55,48,72,43,21,29.83,29.68,11,2,17,0.00
2013-7-14,99,80,67,63,55,46,86,47,18,29.84,29.56,10,2,27,0.30
2013-7-15,77,70,66,63,57,50,88,65,47,29.95,29.76,13,4,21,0.01
2013-7-16,84,72,62,53,49,46,69,46,29,30.01,29.89,13,2,23,0.00
2013-7-17,84,71,60,57,52,46,85,55,29,30.11,29.97,13,3,20,0.02
2013-7-18,86,73,63,56,53,52,73,52,32,30.06,29.83,10,3,19,0.00
2013-7-19,90,74,64,63,58,54,89,61,33,29.91,29.73,18,2,25,0.16
2013-7-20,90,76,66,62,58,54,83,57,33,29.85,29.64,10,3,17,0.11
2013-7-21,95,78,68,60,56,46,71,50,21,29.79,29.63,14,2,21,0.00
2013-7-22,96,80,67,58,54,45,68,43,19,29.78,29.63,7,1,13,0.00
2013-7-23,99,82,69,56,52,45,61,38,19,29.76,29.60,17,2,22,0.00
2013-7-24,94,76,68,65,54,48,78,50,26,29.90,29.70,17,2,25,0.23
2013-7-25,86,74,64,61,59,58,83,62,42,29.98,29.82,11,3,19,0.00
2013-7-26,89,73,59,62,59,54,92,66,35,30.06,29.85,28,5,35,0.99
2013-7-27,84,72,62,60,58,53,90,63,35,30.06,29.80,10,3,15,0.00
2013-7-28,88,75,66,64,59,50,83,61,28,29.83,29.65,11,2,20,0.02
2013-7-29,91,77,63,62,54,44,84,51,20,29.86,29.75,9,2,15,0.00
2013-7-30,96,81,64,53,48,44,61,34,18,29.99,29.83,6,1,12,0.00
2013-7-31,99,83,68,54,49,41,53,33,16,29.97,29.76,7,1,12,0.00
2013-8-1,88,76,68,64,56,52,85,51,35,29.92,29.78,14,2,20,0.06
2013-8-2,93,76,65,64,60,51,88,63,26,29.90,29.73,17,2,24,0.12
2013-8-3,93,77,64,63,58,50,88,56,24,29.91,29.76,6,1,10,0.00
2013-8-4,95,80,65,61,57,48,84,49,23,29.86,29.69,11,2,21,0.20
2013-8-5,91,75,66,62,58,54,82,58,30,29.90,29.73,15,2,22,0.00
2013-8-6,91,76,68,60,54,51,63,48,27,29.82,29.70,13,3,18,0.00
2013-8-7,84,73,63,58,55,50,77,55,32,29.85,29.76,15,3,19,0.00
2013-8-8,88,75,64,57,51,41,75,48,21,29.86,29.75,10,3,19,0.00
2013-8-9,90,76,63,51,46,37,60,38,18,29.93,29.81,13,4,22,0.00
2013-8-11,72,72,72,54,54,54,54,54,54,29.94,29.93,0,0,0,0.00
2013-8-12,86,73,66,60,56,51,77,58,35,30.01,29.84,21,2,21,0.00
2013-8-13,88,76,65,59,54,42,77,50,22,29.98,29.83,17,1,17,0.00
2013-8-14,90,76,64,58,52,40,75,47,20,29.94,29.80,29,2,29,0.00
2013-8-15,92,77,63,56,51,33,74,45,15,29.96,29.80,24,1,24,0.00
2013-8-16,96,79,62,53,47,35,67,37,13,29.94,29.77,16,1,16,0.00
2013-8-17,96,83,72,52,47,35,45,30,13,29.89,29.69,25,2,25,0.00
2013-8-18,95,82,70,54,49,44,51,34,18,29.87,29.71,21,2,21,0.00
2013-8-19,96,80,68,58,50,44,64,37,18,29.84,29.68,23,2,23,0.00
2013-8-20,93,76,63,61,56,49,79,55,24,29.87,29.71,31,1,31,0.02
2013-8-21,92,82,66,58,53,46,71,38,22,29.88,29.74,19,2,19,0.00
2013-8-22,94,81,65,54,49,42,62,36,21,29.90,29.71,16,2,16,0.00
2013-8-23,90,76,62,51,45,39,46,34,24,29.88,29.72,20,3,20,0.00
2013-8-24,86,74,64,62,56,48,80,55,31,29.92,29.78,23,3,23,0.07
2013-8-25,71,67,65,62,61,58,87,80,68,29.98,29.92,10,0,10,0.02
2013-8-26,90,77,64,59,56,52,79,52,29,30.02,29.83,18,1,18,0.00
2013-8-27,91,77,64,56,52,48,66,43,26,29.92,29.75,15,1,15,0.00
2013-8-28,91,76,63,56,52,48,62,44,25,29.92,29.80,21,3,21,0.00
2013-8-29,88,77,70,59,56,51,61,49,31,29.97,29.86,22,4,22,0.00
2013-8-30,96,79,65,62,56,47,75,48,23,29.95,29.76,16,1,16,0.00
2013-8-31,97,81,65,58,52,46,66,40,19,29.84,29.64,16,1,16,0.00
2013-9-1,98,81,69,61,51,45,66,37,19,29.85,29.64,31,2,31,0.00
2013-9-2,94,79,69,60,56,51,70,47,27,29.91,29.74,19,1,19,0.00
2013-9-3,95,79,68,58,54,48,71,46,22,29.90,29.74,25,1,25,0.00
2013-9-4,94,80,67,54,48,35,59,36,19,29.96,29.81,15,1,15,0.00
2013-9-5,92,78,62,44,40,36,44,27,16,30.00,29.85,12,1,17,0.00
2013-9-6,91,77,61,44,39,34,40,27,16,30.00,29.78,9,2,18,0.00
2013-9-7,92,77,64,60,49,40,52,38,24,29.91,29.73,7,1,18,0.00
2013-9-8,92,76,62,54,49,46,59,40,23,29.86,29.63,16,2,28,0.00
2013-9-9,89,75,62,56,51,44,72,45,26,29.75,29.59,18,3,31,0.00
2013-9-10,74,66,62,62,58,55,95,78,55,29.93,29.72,10,1,31,0.66
2013-9-11,84,70,62,63,58,47,95,70,30,29.99,29.85,6,1,12,0.01
2013-9-12,72,66,61,65,60,56,94,82,65,29.95,29.84,8,2,12,0.28
2013-9-13,76,65,60,62,59,55,96,84,50,29.95,29.83,10,2,14,0.32
2013-9-14,75,65,58,61,58,54,96,79,53,29.92,29.80,8,1,12,1.29
2013-9-15,69,60,57,58,55,54,95,85,62,29.97,29.86,12,1,28,0.29
2013-9-16,80,67,57,57,54,51,87,66,39,30.06,29.90,7,1,12,0.00
2013-9-17,82,69,58,59,57,53,89,68,38,29.97,29.77,9,2,15,0.00
2013-9-23,72,64,57,38,34,32,48,33,23,30.01,29.89,7,3,12,0.01
2013-9-24,80,63,47,43,40,37,78,47,23,30.10,29.88,6,1,12,0.00
2013-9-25,85,66,49,46,42,32,74,46,15,29.90,29.56,15,3,22,0.00
2013-9-26,85,70,54,44,39,30,62,35,15,29.69,29.53,19,6,27,0.00
2013-9-27,72,61,48,51,41,32,58,50,30,29.96,29.61,14,4,20,0.00
2013-9-28,73,58,39,32,26,19,64,32,15,30.22,29.96,5,1,12,0.00
2013-9-29,80,60,40,32,27,21,60,32,13,30.22,29.96,7,1,13,0.00
2013-9-30,86,64,44,37,30,24,62,31,12,30.01,29.77,6,1,10,0.00
2013-10-1,87,69,48,37,30,18,49,26,9,29.92,29.78,5,1,8,0.00
2013-10-2,83,64,46,36,30,20,52,31,11,29.95,29.76,6,1,12,0.00
2013-10-3,80,64,47,37,33,24,55,34,13,29.83,29.61,16,3,34,0.00
2013-10-4,64,57,48,33,22,10,45,27,14,30.08,29.70,12,7,21,0.00
2013-10-5,62,51,38,24,19,14,53,30,16,30.29,30.08,9,3,16,0.00
2013-10-6,74,54,38,28,24,20,52,32,14,30.36,30.18,5,0,11,0.00
2013-10-7,77,57,40,29,25,21,53,32,13,30.27,30.02,8,1,14,0.00
2013-10-8,70,53,45,34,30,27,56,42,25,30.05,29.76,8,1,13,0.00
2013-10-9,78,62,46,38,33,29,60,36,18,29.85,29.70,11,3,17,0.00
2013-10-10,71,56,43,46,37,29,80,51,29,29.93,29.59,28,7,37,0.12
2013-10-11,66,48,34,34,32,28,82,55,29,30.09,29.92,9,1,13,0.00
2013-10-12,73,54,37,40,34,31,78,51,25,30.19,30.01,6,1,9,0.00
2013-10-13,78,65,49,45,40,35,61,42,22,30.09,29.80,15,5,22,0.00
2013-10-14,71,60,49,45,30,18,64,36,16,29.97,29.83,16,4,25,0.00
2013-10-15,67,50,38,33,27,21,58,41,27,30.07,29.89,14,3,23,0.00
2013-10-16,62,52,43,36,29,15,67,44,19,30.12,29.99,9,2,15,0.00
2013-10-17,68,50,34,25,20,16,53,32,15,30.20,29.94,5,1,12,0.00
2013-10-18,63,50,36,25,18,12,56,30,14,30.17,29.97,16,5,25,0.00
2013-10-19,68,49,31,28,23,15,72,41,15,30.26,30.05,6,1,12,0.00
2013-10-20,57,43,36,25,20,18,56,40,29,30.10,30.01,4,1,7,0.00
2013-10-22,66,55,49,30,26,23,38,32,25,30.26,30.16,2,0,4,0.00
2013-10-23,73,53,36,32,26,20,58,36,20,30.24,30.05,3,0,7,0.00
2013-10-24,77,57,41,49,30,24,82,39,19,30.19,30.00,20,1,29,0.04
2013-10-25,66,55,47,49,45,39,86,71,45,30.18,30.02,18,3,28,0.05
2013-10-26,68,53,39,45,40,36,94,65,32,30.31,30.15,5,0,8,0.00
2013-10-27,70,54,39,41,37,34,83,57,27,30.23,29.88,7,1,12,0.00
2013-10-28,72,56,44,42,34,22,79,49,19,29.92,29.78,9,1,17,0.00
2013-10-29,70,58,45,30,27,24,53,32,19,29.96,29.72,19,5,26,0.00
2013-10-30,62,50,39,42,33,24,72,52,31,29.98,29.72,19,4,25,0.01
2013-10-31,56,44,32,31,27,23,83,54,29,30.17,29.97,12,3,21,0.00
2013-11-1,61,49,36,29,26,22,68,44,23,30.28,30.12,13,4,24,0.00
2013-11-2,65,49,34,30,27,24,71,45,23,30.36,30.05,7,1,11,0.00
2013-11-3,69,55,43,40,31,24,72,42,23,30.06,29.70,15,4,19,0.00
2013-11-4,67,55,39,42,36,31,74,51,31,29.90,29.70,14,4,24,0.00
2013-11-5,53,46,34,45,33,17,89,62,43,30.28,29.73,17,5,28,0.07
2013-11-6,55,40,28,20,16,12,63,40,20,30.54,30.28,10,2,14,0.00
2013-11-7,63,44,28,26,22,18,80,45,21,30.57,30.33,6,0,8,0.00
2013-11-8,64,46,30,27,24,20,67,45,24,30.34,30.08,4,0,8,0.00
2013-11-9,72,50,33,28,25,22,69,41,16,30.25,30.13,4,1,7,0.00
2013-11-10,70,50,35,29,25,22,62,40,17,30.34,30.19,5,1,7,0.00
2013-11-11,68,52,37,28,25,20,63,38,18,30.34,30.20,6,1,11,0.00
2013-11-12,61,48,38,36,31,20,75,53,32,30.56,30.33,9,2,14,0.00
2013-11-13,48,38,34,36,33,30,89,81,63,30.55,30.20,5,1,11,0.00
2013-11-14,63,47,36,42,34,26,90,65,36,30.20,29.98,3,0,7,0.00
2013-11-15,61,45,32,45,33,25,89,66,38,29.99,29.72,15,3,24,0.08
2013-11-16,62,51,42,44,37,27,89,63,33,29.81,29.61,16,5,21,0.00
2013-11-17,60,49,37,34,31,27,69,51,34,30.17,29.81,11,3,18,0.00
2013-11-18,60,43,33,33,30,26,79,61,35,30.30,30.17,5,0,6,0.00
2013-11-19,64,44,31,36,31,26,84,64,33,30.21,29.91,4,0,8,0.00
2013-11-20,50,44,40,43,37,30,93,78,60,29.99,29.89,7,0,11,0.17
2013-11-21,57,47,40,46,42,38,94,86,68,30.12,29.98,6,1,9,0.17
2013-11-22,45,38,35,42,31,27,93,76,65,30.45,30.11,11,3,16,0.07
2013-11-23,39,35,29,31,27,19,92,71,57,30.54,30.40,12,4,20,0.04
2013-11-24,34,29,24,25,22,18,87,74,63,30.51,30.31,10,3,17,0.04
2013-11-25,46,35,28,32,28,24,91,76,55,30.48,30.26,11,3,18,0.01
2013-11-26,50,36,26,32,28,23,89,73,47,30.60,30.47,3,0,7,0.00
2013-11-27,49,36,26,29,27,22,92,71,44,30.54,30.32,4,1,8,0.00
2013-11-28,38,31,29,28,25,22,85,79,62,30.40,30.33,4,0,7,0.00
2013-11-30,40,39,38,32,32,31,76,74,71,30.34,30.32,0,0,0,0.00
2013-12-1,50,38,31,33,30,27,92,73,50,30.40,30.30,7,2,16,0.00
2013-12-2,56,39,30,31,28,24,81,64,37,30.36,29.98,9,1,13,0.00
2013-12-3,66,46,30,28,23,13,81,48,13,29.99,29.66,24,4,33,0.00
2013-12-4,61,46,37,34,24,17,68,45,21,29.87,29.54,27,8,35,0.00
2013-12-5,37,29,18,31,24,12,93,83,58,30.16,29.84,9,3,12,0.04
2013-12-6,37,23,12,21,14,8,86,70,40,30.45,30.17,5,1,8,0.04
2013-12-7,32,25,18,27,19,11,89,78,69,30.39,30.06,7,2,11,0.00
2013-12-8,36,30,25,26,17,10,90,60,44,30.18,29.98,14,5,20,0.00
2013-12-9,31,25,17,16,8,0,70,50,29,30.70,30.18,16,5,23,0.00
2013-12-11,43,35,26,16,14,12,65,44,28,30.74,30.66,4,1,8,0.00
2013-12-12,43,32,20,20,16,11,72,52,36,30.75,30.33,6,0,11,0.00
2013-12-13,48,37,30,31,25,20,79,63,50,30.33,30.08,14,2,25,0.00
2013-12-14,35,33,29,21,19,17,63,58,54,30.35,30.22,13,4,22,0.00
2013-12-20,55,40,29,31,24,20,73,55,26,29.87,29.68,9,1,14,0.00
2013-12-21,43,38,34,33,28,24,91,67,48,29.92,29.60,15,4,21,0.00
2013-12-22,47,35,24,25,19,13,76,54,28,30.43,29.92,11,2,16,0.00
2013-12-23,50,36,24,21,18,15,68,51,30,30.63,30.43,6,1,9,0.00
2013-12-24,52,37,23,25,21,17,78,54,32,30.57,30.30,8,1,11,0.00
2013-12-25,47,36,25,24,18,11,78,50,30,30.56,30.39,11,2,18,0.00
2013-12-26,53,35,21,19,15,12,73,48,25,30.58,30.39,5,0,8,0.00
2013-12-27,56,37,24,18,15,13,66,43,20,30.53,30.36,7,1,12,0.00
2013-12-28,50,34,21,20,16,13,72,48,27,30.37,30.06,6,1,10,0.00
2013-12-29,51,38,28,23,20,17,63,49,33,30.30,30.09,6,0,10,0.00
2013-12-30,52,37,25,18,13,5,70,40,19,30.48,30.30,11,2,17,0.00
2013-12-31,52,32,22,18,14,12,66,50,26,30.49,30.31,6,1,10,0.00
2014-1-2,53,36,23,24,16,12,78,47,20,30.50,30.35,7,1,10,0.00